Regional Weather Roundup
Issued by NWS

Home | Current Version | Previous Version | Text Only | Print | Product List | Glossary Off
Versions: 1 2 3 4 5 6 7 8 9 10 11 12 13 14 15 16 17 18 19 20 21 22 23 24 25 26 27 28 29 30 31 32 33 34 35 36 37 38 39 40 41 42 43 44 45 46 47 48 49 50

000
ASUS43 KOAX 241202
RWRNE

WEATHER ROUNDUP FOR NEBRASKA
NATIONAL WEATHER SERVICE OMAHA NE
700 AM CDT THU JUL 24 2014

NOTES: SATELLITE DATA IS BEING USED TO AUGMENT CLOUD COVER ABOVE
       12000 FEET.
       "FAIR" INDICATES FEW OR NO CLOUDS BELOW 12,000 FEET WITH NO
       SIGNIFICANT WEATHER AND/OR OBSTRUCTIONS TO VISIBILITY.

  * THESE STATIONS DO NOT REPORT WEATHER SUCH AS RAIN...SNOW OR FOG.

NEZ001>004-019>022-054>056-241300-
NEBRASKA PANHANDLE

CITY           SKY/WX    TMP DP  RH WIND       PRES   REMARKS
SCOTTSBLUFF    CLEAR     66  64  93 E12       30.00F
6HR MIN TEMP:  66; 6HR MAX TEMP:  72;

ALLIANCE       CLEAR     64  63  96 SE12      30.02F FOG
6HR MIN TEMP:  64; 6HR MAX TEMP:  70;

CHADRON        PTCLDY    71  64  78 S7        29.92F
6HR MIN TEMP:  71; 6HR MAX TEMP:  77;

KIMBALL        PTCLDY    63  61  94 S6        30.08F
SIDNEY         PTCLDY    68  63  84 SW10      30.07F
6HR MIN TEMP:  68; 6HR MAX TEMP:  73;

$$

NEZ057>060-069>072-079>082-241300-
SOUTHWEST NEBRASKA

CITY           SKY/WX    TMP DP  RH WIND       PRES   REMARKS
NORTH PLATTE   CLEAR     68  61  78 SE10      30.03F
6HR MIN TEMP:  63; 6HR MAX TEMP:  68;

IMPERIAL       CLEAR     67  64  90 S12       30.04F
6HR MIN TEMP:  65; 6HR MAX TEMP:  68;

LEXINGTON      CLEAR     65  62  89 SE7       30.07F
MCCOOK         CLEAR     64  62  93 SE7       30.05F
6HR MIN TEMP:  63; 6HR MAX TEMP:  69;

OGALLALA       CLEAR     63  61  93 CALM      30.04F
$$

NEZ005>010-023>029-035>040-094-241300-
NORTH CENTRAL NEBRASKA

CITY           SKY/WX    TMP DP  RH WIND       PRES   REMARKS
VALENTINE      PTCLDY    66  60  81 S10       29.99F
6HR MIN TEMP:  64; 6HR MAX TEMP:  70;

AINSWORTH      CLEAR     64  59  82 S13       30.02F
BROKEN BOW     CLEAR     65  61  87 SE10      30.06F
6HR MIN TEMP:  62; 6HR MAX TEMP:  66;

O`NEILL        CLOUDY    65  58  78 S12       30.07F
ORD            CLEAR     64  60  87 SE7       30.07F
6HR MIN TEMP:  63; 6HR MAX TEMP:  67;

$$

NEZ041-046>049-061>064-073>077-083>087-241300-
SOUTH CENTRAL NEBRASKA

CITY           SKY/WX    TMP DP  RH WIND       PRES   REMARKS
GRAND ISLAND   CLEAR     66  61  84 S10       30.10F
6HR MIN TEMP:  64; 6HR MAX TEMP:  68;

AURORA         CLEAR     62  61  98 SE7       30.11F
HASTINGS       CLEAR     66  59  78 S10       30.10F
6HR MIN TEMP:  66; 6HR MAX TEMP:  71;

HEBRON         CLEAR     61  58  90 E3        30.12S
HOLDREGE       CLEAR     65  61  86 SE10      30.08F
KEARNEY *      CLEAR     63  61  94 SE10      30.09F
YORK           CLEAR     63  63 100 S9        30.12S
$$

NEZ011>018-030>034-042>045-241300-
NORTHEAST NEBRASKA

CITY           SKY/WX    TMP DP  RH WIND       PRES   REMARKS
NORFOLK        PTCLDY    66  60  81 S13       30.10S
6HR MIN TEMP:  62; 6HR MAX TEMP:  66;

ALBION         PTCLDY    61  58  90 SE7       30.10F FOG
BLAIR          CLEAR     64  47  52 SE6       30.13S
COLUMBUS *     PTCLDY    64  57  77 SE8       30.11S
FREMONT        CLEAR     68  60  76 SE7       30.12F
TEKAMAH        CLEAR     62  59  90 SE5       30.12F
6HR MIN TEMP:  59; 6HR MAX TEMP:  65;

WAYNE          CLEAR     65  61  85 SE8       30.11S
$$

NEZ050>053-065>068-078-088>093-241300-
SOUTHEAST NEBRASKA

CITY           SKY/WX    TMP DP  RH WIND       PRES   REMARKS
LINCOLN        CLEAR     69  60  73 SE10      30.13S
6HR MIN TEMP:  68; 6HR MAX TEMP:  72;

OMAHA EPPLEY   PTCLDY    67  58  72 SE7       30.13F
6HR MIN TEMP:  66; 6HR MAX TEMP:  72;

BEATRICE       CLEAR     64  61  88 SE6       30.13S
FALLS CITY     CLEAR     63  60  90 E3        30.13S
6HR MIN TEMP:  62; 6HR MAX TEMP:  68;

NEBRASKA CITY  CLEAR     63  62  96 S5        30.15R
PLATTSMOUTH    CLEAR     64  59  83 SE6       30.14S
$$

NEZ044-045-051>053-067-241300-
OMAHA AREA

CITY           SKY/WX    TMP DP  RH WIND       PRES   REMARKS
OMAHA EPPLEY   PTCLDY    67  58  72 SE7       30.13F
6HR MIN TEMP:  66; 6HR MAX TEMP:  72;

BLAIR          CLEAR     64  47  52 SE6       30.13S
FREMONT        CLEAR     68  60  76 SE7       30.12F
MILLARD        CLEAR     66  60  82 SE3       30.13F
OFFUTT AFB     CLEAR     61  61  99 CALM      30.13S
PLATTSMOUTH    CLEAR     64  59  83 SE6       30.14S
WAHOO          FAIR      63  60  88 SE7       30.11F
$$



USA.gov is the U.S. government's official web portal to all federal, state and local government web resources and services.